Flag for Germany Weather past 2 weeks in Haltern am See, North Rhine-Westphalia, Germany

Now
39 °F

Passing clouds.


Feels Like: 35 °F
Forecast: 46 / 52 °F
Wind: 5 mph from West

Location: Muenster / Osnabrueck

Current Time: Dec 21, 2014 at 4:26:08 AM

Latest Report: Dec 21, 2014 at 4:00 AM


Visibility: 16 mi

Pressure: 30.33 "Hg

Humidity: 87%

Dew point: 35 °F

Location of Haltern am SeeLocation

Historic Weather in Haltern am See — Graph

°F

Haltern am See temperature yesterday

Maximum temperature yesterday: 45 °F (at 3:00 PM)
Minimum temperature yesterday: 38 °F (at 7:00 PM)
Average temperature yesterday: 43 °F

Past Weeks' High & Low Weather Summary

 TemperatureHumidityPressure
High54 °F (Dec 18, 7:00 PM)99% (Dec 7, 1:00 AM)30.37 "Hg (Dec 7, 1:00 AM)
Low34 °F (Dec 14, 10:00 PM)67% (Dec 7, 3:00 PM)29.32 "Hg (Dec 12, 2:00 PM)
Average42 °F87%29.91 "Hg
* Reported Dec 6 3:00 AM — Dec 21 3:00 AM, Haltern am See, Weather by CustomWeather, © 2014

Note: Actual official high and low records may vary slightly from our data, if they occured in-between our weather recording intervals... More about our weather records

Advertising

Haltern am See weather history for previous 24 hours

 ConditionsComfort  
Time TempWeatherWind HumidityBarometerVisibility
3:00 AM
Dec 21
38 °FPassing clouds.5 mph88%30.32 "Hg16 mi
2:00 AM39 °FChilly.5 mph87%30.29 "HgN/A
1:00 AM39 °FClear.6 mph87%30.27 "Hg19 mi
12:00 AM39 °FPassing clouds.6 mph88%30.26 "Hg19 mi
11:00 PM
Dec 20
39 °FPassing clouds.6 mph88%30.23 "Hg19 mi
10:00 PM39 °FPassing clouds.7 mph82%30.20 "Hg19 mi
9:00 PM40 °FPassing clouds.7 mph82%30.17 "Hg19 mi
8:00 PM40 °FPassing clouds.7 mph85%30.13 "Hg19 mi
7:00 PM38 °FSprinkles. Overcast.9 mph88%30.09 "Hg16 mi
6:00 PM42 °FPassing clouds.9 mph81%30.04 "Hg16 mi
5:00 PM43 °FPassing clouds.9 mph79%30.02 "Hg16 mi
4:00 PM43 °FSprinkles. Partly sunny.10 mph83%29.98 "Hg7 mi
3:00 PM45 °FSprinkles. Overcast.13 mph76%29.95 "Hg7 mi
2:00 PM45 °FOvercast.12 mph80%29.96 "Hg12 mi
1:00 PM44 °FOvercast.10 mph79%29.98 "Hg9 mi
12:00 PM44 °FOvercast.10 mph80%29.99 "Hg12 mi
11:00 AM44 °FSprinkles. Overcast.12 mph81%30.01 "Hg9 mi
10:00 AM44 °FOvercast.10 mph79%30.01 "Hg12 mi
9:00 AM44 °FOvercast.10 mph77%30.01 "Hg12 mi
8:00 AM43 °FOvercast.9 mph79%30.03 "Hg16 mi
7:00 AM44 °FOvercast.9 mph78%30.05 "Hg19 mi
6:00 AM43 °FOvercast.9 mph79%30.04 "Hg2 mi
5:00 AM42 °FOvercast.8 mph80%30.04 "Hg19 mi
4:00 AM43 °FOvercast.8 mph78%30.04 "Hg19 mi
Weather by CustomWeather, © 2014

See weather overviewHow to use our weather pages